| time (UTC) | temp F | wind direction | speed MPH | gust MPH | rain 1hr in | rain 24hr in | rain mn in | humidity % | barometer mb |
| 20260504184537 | 62 | 50 | 0.0 | 2.0 | 0.00 | 0.49 | 0.44 | 86 | 1009.8 |
| 20260504183037 | 62 | 0 | 0.0 | 2.0 | 0.00 | 0.49 | 0.44 | 85 | 1009.8 |
| 20260504181542 | 63 | 103 | 0.0 | 1.0 | 0.00 | 0.49 | 0.44 | 84 | 1009.8 |
| 20260504180035 | 63 | 0 | 0.0 | 1.0 | 0.00 | 0.49 | 0.44 | 81 | 1009.9 |
| 20260504174535 | 64 | 0 | 0.0 | 2.0 | 0.00 | 0.49 | 0.44 | 78 | 1009.9 |
| 20260504173036 | 66 | 88 | 1.0 | 4.0 | 0.00 | 0.49 | 0.44 | 76 | 1009.9 |
| 20260504171535 | 65 | 0 | 0.0 | 1.0 | 0.00 | 0.49 | 0.44 | 79 | 1009.9 |
| 20260504081546 | 55 | 0 | 0.0 | 3.0 | 0.02 | 0.50 | 0.43 | 95 | 1012.8 |
| 20260504044537 | 53 | 0 | 0.0 | 1.0 | 0.03 | 0.57 | 0.38 | 98 | 1012.4 |
| 20260504043039 | 54 | 0 | 0.0 | 1.0 | 0.03 | 0.56 | 0.37 | 98 | 1012.5 |
| 20260504041537 | 54 | 0 | 0.0 | 1.0 | 0.03 | 0.56 | 0.37 | 98 | 1012.5 |
| 20260504040043 | 54 | 0 | 0.0 | 0.0 | 0.03 | 0.55 | 0.37 | 97 | 1012.4 |
| 20260504034537 | 54 | 0 | 0.0 | 1.0 | 0.02 | 0.55 | 0.35 | 97 | 1012.6 |
| 20260504033044 | 54 | 0 | 0.0 | 0.0 | 0.01 | 0.55 | 0.34 | 97 | 1012.6 |
| 20260504031541 | 54 | 0 | 0.0 | 0.0 | 0.01 | 0.54 | 0.33 | 97 | 1012.7 |
| 20260504030037 | 54 | 0 | 0.0 | 0.0 | 0.03 | 0.54 | 0.33 | 97 | 1012.7 |
| 20260504024538 | 54 | 0 | 0.0 | 1.0 | 0.04 | 0.53 | 0.33 | 97 | 1012.7 |
| 20260504023038 | 54 | 0 | 0.0 | 1.0 | 0.07 | 0.53 | 0.33 | 97 | 1012.8 |
| 20260504021538 | 55 | 0 | 0.0 | 1.0 | 0.07 | 0.52 | 0.32 | 97 | 1012.8 |
| 20260504020057 | 55 | 0 | 0.0 | 1.0 | 0.07 | 0.51 | 0.30 | 97 | 1012.8 |
| 20260504014554 | 55 | 0 | 0.0 | 0.0 | 0.04 | 0.48 | 0.28 | 97 | 1012.7 |
| 20260504013047 | 55 | 0 | 0.0 | 0.0 | 0.02 | 0.45 | 0.25 | 97 | 1012.6 |
| 20260504011545 | 55 | 0 | 0.0 | 0.0 | 0.01 | 0.44 | 0.24 | 97 | 1012.6 |
| 20260504010045 | 55 | 0 | 0.0 | 0.0 | 0.00 | 0.44 | 0.23 | 97 | 1012.6 |
| 20260504004553 | 55 | 0 | 0.0 | 0.0 | 0.00 | 0.44 | 0.23 | 97 | 1012.7 |
| 20260504003040 | 55 | 0 | 0.0 | 0.0 | 0.03 | 0.43 | 0.22 | 96 | 1012.6 |
| 20260504001555 | 55 | 0 | 0.0 | 1.0 | 0.04 | 0.43 | 0.22 | 96 | 1012.9 |
| 20260504000037 | 55 | 0 | 0.0 | 2.0 | 0.05 | 0.43 | 0.22 | 96 | 1013.0 |
| 20260503234539 | 56 | 0 | 0.0 | 3.0 | 0.07 | 0.43 | 0.22 | 97 | 1013.2 |
| 20260503233041 | 56 | 0 | 0.0 | 4.0 | 0.10 | 0.40 | 0.19 | 97 | 1013.4 |
| 20260503231537 | 56 | 117 | 0.0 | 5.0 | 0.13 | 0.37 | 0.17 | 97 | 1013.5 |
| 20260503230045 | 56 | 154 | 1.0 | 5.0 | 0.17 | 0.37 | 0.17 | 97 | 1013.5 |
| 20260503224536 | 56 | 199 | 0.0 | 5.0 | 0.16 | 0.35 | 0.14 | 96 | 1013.5 |
| 20260503223039 | 56 | 193 | 1.0 | 4.0 | 0.10 | 0.29 | 0.08 | 96 | 1013.5 |
| 20260503221537 | 56 | 0 | 1.0 | 6.0 | 0.05 | 0.24 | 0.03 | 96 | 1013.6 |
| 20260503220044 | 57 | 0 | 0.0 | 2.0 | 0.01 | 0.20 | 0.00 | 96 | 1013.6 |
| 20260503214540 | 57 | 0 | 0.0 | 3.0 | 0.00 | 0.18 | 0.18 | 96 | 1013.6 |
| 20260503213037 | 57 | 124 | 1.0 | 5.0 | 0.00 | 0.18 | 0.18 | 96 | 1013.5 |
| 20260503211537 | 57 | 0 | 0.0 | 3.0 | 0.00 | 0.18 | 0.18 | 96 | 1013.4 |
| 20260503210038 | 57 | 0 | 0.0 | 3.0 | 0.00 | 0.18 | 0.18 | 96 | 1013.3 |
| 20260503204536 | 57 | 155 | 0.0 | 5.0 | 0.00 | 0.18 | 0.18 | 96 | 1013.4 |
| 20260503203052 | 57 | 105 | 0.0 | 4.0 | 0.00 | 0.18 | 0.18 | 96 | 1013.1 |
| 20260503201538 | 57 | 113 | 0.0 | 2.0 | 0.00 | 0.18 | 0.18 | 95 | 1013.0 |
| 20260503200037 | 57 | 0 | 0.0 | 1.0 | 0.01 | 0.18 | 0.18 | 95 | 1012.9 |
| 20260503194542 | 58 | 0 | 0.0 | 2.0 | 0.02 | 0.18 | 0.18 | 94 | 1012.9 |
| 20260503193039 | 58 | 139 | 0.0 | 2.0 | 0.03 | 0.18 | 0.18 | 94 | 1012.9 |
| 20260503191546 | 58 | 136 | 0.0 | 4.0 | 0.02 | 0.18 | 0.18 | 93 | 1012.5 |
| 20260503190042 | 58 | 0 | 0.0 | 3.0 | 0.01 | 0.17 | 0.17 | 93 | 1012.6 |